User: anonymous
Location: Unspecified
(0.0000°N, 0.0000°E)
Time: 20:16:00
(UTC+02:00)
Language:

Cosmos 1538 Rocket - Orbit

View from above orbital plane
View from above orbital plane
View from above satellite
View from above satellite

Ground track
Ground track

The orbit data is extracted from the following two-line orbital elements,

1 14760U 84019B   14206.14618387  .00000073  00000-0  34246-4 0  3673
2 14760 074.0429 262.4108 0027964 019.5820 010.4563 14.35508462591745
Epoch (UTC): 25 July 2014 03:30:30
Eccentricity: 0.0027964
inclination: 74.0429°
perigee height: 753 km
apogee height: 793 km
right ascension of ascending node: 262.4108°
argument of perigee: 19.5820°
revolutions per day: 14.35508462
mean anomaly at epoch: 10.4563°
orbit number at epoch: 59174

The dashed part of the orbit path shows where the satellite is in the earth's shadow,  

DLR